Content
SEND FEEDBACK

Daily
Averages
Monthly
Summary
Canada

CHARLOTTETOWN, PRINCE EDWARD ISLAND


Home > North America > Canada > Prince Edward Island
Elevation: 181 feet     Latitude: 46 17N     Longitude: 063 08W

WEATHER
 
SELECT A DAY
Number of Records: 194,930;   Date Range: 1/1/95 - 7/23/14
 
SHARE

PRINT THIS DATA

[ ← Previous Day ]
WEATHER ALMANAC - APRIL 8, 2013
[ Next Day → ]
[ °C ]   °F
Weather ElementAverageHighLow
Temperature36.7 °F48.2 °F (2:00 pm)30.2 °F (9:24 pm)
Dewpoint32.6 °F41 °F (1:47 pm)21.2 °F (1:00 am)
Humidity85.1 %100 % (8:00 pm)55 % (3:00 am)
Barometer30.01 in30.14 in (11:00 pm)29.93 in (1:00 pm)
Wind Speed10.3 mph16.1 mph (5:00 am)
Wind Gust20.7 mph (4:00 pm)
Weather ElementAverage
Visibility12.8 mi
Wind DirectionW (268.3 °)

Weather ElementTotal
Precipitation---
Heating Degree Days25.8 (Base 65)
Averaged from 35 records on April 8, 2013
WEATHER CONDITIONS BREAKOUT
WIND DIRECTION BREAKOUT
WEATHER BY HOUR - APRIL 8, 2013
[ °C ]   °F
Local TimeTemperatureDewpointHumidityBarometerVisibilityWind DirectionWind SpeedGust SpeedPrecipitationEventsConditions
1:00 AM33.8 °F21.2 °F60 %30.05 in15.0 miSSE (160°)13.8 mphOvercast
2:00 AM33.8 °F23.0 °F65 %30.05 in15.0 miSouth (180°)13.8 mphOvercast
3:00 AM34.0 °F24.0 °F55 %30.03 in15.0 miSSE (160°)12.7 mphOvercast
4:00 AM33.8 °F24.8 °F70 %29.99 in15.0 miSouth (170°)13.8 mphOvercast
5:00 AM33.8 °F26.6 °F75 %29.97 in15.0 miSouth (180°)16.1 mphOvercast
6:00 AM33.8 °F28.4 °F81 %29.96 in15.0 miSouth (180°)12.7 mphOvercast
7:00 AM33.8 °F28.4 °F81 %29.95 in15.0 miSouth (180°)12.7 mphOvercast
8:00 AM35.6 °F30.2 °F81 %29.95 in15.0 miSouth (180°)11.5 mph17.3 mphRainLight Rain Showers
9:00 AM37.4 °F32.0 °F81 %29.94 in15.0 miSouth (190°)12.7 mph19.6 mphRainLight Rain Showers
9:00 AM37.0 °F33.0 °F79 %29.94 in15.0 miSouth (190°)12.7 mphRainLight Rain Showers
10:00 AM39.2 °F33.8 °F81 %29.94 in15.0 miSSW (200°)12.7 mphRainLight Rain Showers
11:00 AM41.0 °F37.4 °F87 %29.94 in15.0 miSSW (210°)11.5 mphRainLight Rain Showers
11:49 AM41.0 °F37.4 °F87 %29.94 in15.0 miSSW (210°)6.9 mphOvercast
12:00 PM41.0 °F37.4 °F87 %29.94 in15.0 miSSW (210°)8.1 mphOvercast
1:00 PM42.8 °F39.2 °F87 %29.93 in15.0 miSSW (210°)9.2 mphOvercast
1:47 PM46.4 °F41.0 °F81 %29.93 in15.0 miWest (260°)12.7 mphMostly Cloudy
2:00 PM48.2 °F41.0 °F76 %29.93 in15.0 miWest (270°)9.2 mphMostly Cloudy
3:00 PM46.4 °F39.2 °F76 %29.95 in15.0 miWNW (300°)9.2 mphOvercast
3:00 PM47.0 °F40.0 °F69 %29.95 in15.0 miWNW (300°)9.2 mphPartly Cloudy
3:50 PM42.8 °F39.2 °F87 %29.97 in15.0 miNNW (340°)11.5 mph18.4 mphOvercast
4:00 PM41.0 °F37.4 °F87 %29.98 in15.0 miNNW (340°)11.5 mph20.7 mphOvercast
5:00 PM37.4 °F35.6 °F93 %30.00 in12.0 miNNW (340°)11.5 mphOvercast
5:41 PM37.4 °F33.8 °F87 %30.03 in15.0 miNNW (330°)10.4 mphOvercast
6:00 PM37.4 °F33.8 °F87 %30.03 in15.0 miNNW (340°)9.2 mphMostly Cloudy
6:25 PM35.6 °F33.8 °F93 %30.04 in15.0 miNorth (350°)10.4 mphMostly Cloudy
7:00 PM33.8 °F32.0 °F93 %30.04 in15.0 miNorth (360°)9.2 mphMostly Cloudy
7:44 PM33.8 °F32.0 °F93 %30.05 in15.0 miNorth (350°)5.8 mphOvercast
8:00 PM32.0 °F32.0 °F100 %30.05 in15.0 miNNW (340°)9.2 mphOvercast
9:00 PM31.0 °F31.0 °F100 %30.07 in12.0 miNNW (340°)5.8 mphOvercast
9:00 PM32.0 °F32.0 °F100 %30.07 in12.0 miNNW (340°)5.8 mphOvercast
9:24 PM30.2 °F30.2 °F100 %30.09 in5.0 miNNW (340°)6.9 mphOvercast
9:54 PM30.2 °F30.2 °F100 %30.11 in1.0 miNNW (340°)10.4 mphOvercast
10:00 PM30.2 °F30.2 °F100 %30.12 in0.8 miNNW (330°)6.9 mphMist
10:41 PM30.2 °F30.2 °F100 %30.13 in0.5 miNNW (330°)9.2 mphFogLight Freezing Fog
11:00 PM30.2 °F30.2 °F100 %30.14 in0.5 miNNW (340°)6.9 mphFogLight Freezing Fog
Hourly data recorded from CYYG, located miles away from Charlottetown, Prince Edward Island







STORIES FROM OUR PARTNERS